Location: Glencliff
(36.1226°N, 86.7183°W)
Time: 22:34:38
(UTC+00:00)

ARIANE 5 R/B - Pass Details

Date: 25 August 2019
Orbit: 749 x 794 km, 98.6° (Epoch: 17 September)

Event Time Altitude Azimuth Distance (km) Brightness Sun altitude
Rises 07:48:30 0° 20° (NNE) 3,300 6.7 -35.3°
Reaches altitude 10° 07:50:57 10° 27° (NNE) 2,364 5.8 -35.0°
Enters shadow 07:54:31 36° 60° (ENE) 1,240 3.9 -34.5°
